Location: *
(51.1253°N, 0.8161°E)
Time: 00:46:14
(UTC+00:00)

Daily predictions for brighter satellites

Satellite Brightness Start Highest point End
(mag) Time Altitude Azimuth Time Altitude Azimuth Time Altitude Azimuth
Cosmos 2263 Rocket 4.2 00:15:09 21° NW 00:15:22 21° NW 00:19:38 10° NNE
Cosmos 2278 Rocket 3.8 00:36:49 30° NE 00:36:49 30° NE 00:39:39 10° NNE
CZ-2D R/B 4.2 00:44:22 10° NE 00:46:58 21° ENE 00:46:58 21° ENE
ATLAS 5 CENTAUR R/B 4.0 01:00:22 23° NE 01:00:22 23° NE 01:02:18 10° NE
ATLAS CENTAUR R/B 4.2 01:07:51 16° NNW 01:08:31 16° N 01:11:31 10° NNE
USA 267 3.5 01:02:08 10° ENE 01:08:08 62° N 01:08:08 62° N
Lacrosse 5 3.8 01:18:11 25° ENE 01:18:11 25° ENE 01:20:28 10° ENE
SL-16 R/B 3.0 01:24:47 55° N 01:24:47 55° N 01:29:35 10° NNW
Cosmos 1844 Rocket 4.5 01:25:18 24° NNW 01:25:18 24° NNW 01:29:30 10° NNE
ADEOS II 4.1 01:25:20 10° NE 01:29:08 20° E 01:29:29 20° E
Cosmos 2082 Rocket 4.5 01:28:21 10° NW 01:29:11 14° NW 01:29:11 14° NW
USA 238 DEB 4.1 01:38:22 51° ESE 01:38:22 51° ESE 01:44:25 10° NE
USA 238 4.2 01:38:28 51° ESE 01:38:28 51° ESE 01:44:33 10° NE
Cosmos 2297 4.3 01:45:58 54° NE 01:45:58 54° NE 01:50:24 10° NNE
Cosmos 1763 Rocket 4.4 01:47:36 47° NNE 01:47:36 47° NNE 01:51:21 10° NNE
Resurs 1-4 Rocket 2.9 01:41:14 10° NNE 01:45:11 49° NE 01:45:11 49° NE
Cosmos 2369 Rocket 3.5 01:52:52 30° ESE 01:52:57 30° ESE 01:57:49 10° NE
ARIANE 5 R/B 3.8 01:56:47 10° NNE 02:01:25 34° E 02:01:35 33° E
CZ-4B R/B 4.3 02:03:16 17° NNE 02:03:16 17° NNE 02:04:25 10° N
Cosmos 2228 Rocket 4.3 02:11:35 41° NNE 02:11:35 41° NNE 02:14:37 10° NNE
Meteor 1-20 Rocket 4.2 02:11:09 10° N 02:16:23 73° NE 02:16:23 73° NE
Cosmos 1125 Rocket 4.1 02:13:03 10° NNW 02:17:02 51° NNW 02:17:02 51° NNW
Cosmos 2278 Rocket 3.5 02:18:40 30° NW 02:18:40 30° NW 02:23:32 10° NNE
Cosmos 1814 Rocket 4.3 02:20:34 60° N 02:20:34 60° N 02:24:54 10° NNE
SME Rocket 3.7 02:13:02 10° NNE 02:20:14 85° ESE 02:20:14 85° ESE
NOSS 3-2 (A) 3.4 02:20:34 73° SE 02:20:42 74° SE 02:27:24 10° NE
ATLAS 3B R/B 3.3 02:21:10 40° SE 02:22:18 44° ESE 02:28:29 10° NE
NOSS 3-2 (C) 3.7 02:24:57 55° SE 02:25:28 57° SE 02:31:59 10° NE
Gbstr 26 Del rocket 4.4 02:26:02 46° W 02:28:53 88° N 02:36:56 10° E
CZ-2D R/B 2.5 02:23:54 10° N 02:28:18 53° NNW 02:28:18 53° NNW
Cosmos 1943 Rocket 2.3 02:31:09 60° SE 02:31:29 61° ESE 02:36:59 10° NE
CBERS-1 4.2 02:29:06 10° NNE 02:33:37 64° NNW 02:33:37 64° NNW
NPP 4.0 02:29:11 10° N 02:33:55 54° NW 02:33:55 54° NW
Cosmos 2084 4.4 02:35:45 45° N 02:35:45 45° N 02:39:13 10° NE
IRS-1C 4.0 02:31:28 10° NNE 02:36:51 86° ESE 02:37:00 84° SSE
Cosmos 841 Rocket 3.8 02:39:17 54° NW 02:39:17 54° NW 02:43:57 10° NNE
Cosmos 2180 Rocket 4.4 02:33:46 10° NNW 02:40:04 64° W 02:40:08 64° W
Cosmos 2279 Rocket 4.3 02:35:42 10° NNW 02:40:58 48° WNW 02:40:58 48° WNW
ATLAS 5 CENTAUR R/B 3.3 02:41:54 26° NW 02:42:43 27° NNW 02:47:11 10° NE
Cosmos 2344 3.6 02:44:31 49° SSW 02:46:51 79° SE 02:55:21 10° NE
ATLAS CENTAUR R/B 4.1 02:45:49 10° NNW 02:49:11 19° NNE 02:52:23 10° ENE
USA 267 3.8 02:44:52 10° ENE 02:51:12 54° N 02:55:28 22° WNW
Cosmos 44 4.2 02:53:56 36° SSE 02:54:52 40° ESE 02:59:20 10° NE
Cosmos 1782 3.2 02:55:54 62° NE 02:55:54 62° NE 02:59:23 10° NNE
Unknown 4.5 02:56:40 42° ESE 02:56:40 42° ESE 03:00:00 10° ENE
Unknown 4.4 02:58:16 44° ESE 02:58:16 44° ESE 03:01:39 10° ENE
BREEZE-M DEB (TANK) 4.3 02:41:53 10° W 02:58:17 80° S 03:02:35 10° ESE
Lacrosse 5 2.0 02:57:25 41° NW 02:59:09 73° NNE 03:04:13 10° ESE
Unknown 4.3 02:59:51 45° ESE 02:59:51 45° ESE 03:03:19 10° ENE
Cosmos 1092 Rocket 4.3 02:56:51 26° SSE 03:00:26 64° E 03:06:32 10° NNE
Unknown 4.3 03:01:28 47° SE 03:01:28 47° SE 03:05:00 10° ENE
CENTAUR R/B 2.7 02:59:40 45° SSW 03:01:39 68° SE 03:08:47 10° NE
Spot 4 Rocket 3.9 02:58:36 10° NNE 03:03:47 88° ESE 03:04:57 56° SSW
Unknown 4.1 03:04:39 50° SE 03:04:39 50° SE 03:08:20 10° ENE
Unknown 3.9 03:05:31 56° ESE 03:05:31 56° ESE 03:09:05 10° ENE
Unknown 4.1 03:06:18 52° SE 03:06:18 52° SE 03:10:01 10° ENE
Cosmos 2263 4.2 03:05:23 46° S 03:07:04 73° ESE 03:12:41 10° NNE
Cosmos 1400 Rocket 3.6 03:06:43 40° SE 03:07:30 46° E 03:11:14 10° NNE
Unknown 4.0 03:07:51 53° SE 03:07:51 53° SE 03:11:40 10° ENE
SL-16 R/B 4.1 03:09:53 18° WNW 03:09:53 18° WNW 03:12:17 10° NW
Unknown 4.0 03:09:23 54° SE 03:09:23 54° SE 03:13:16 10° ENE
ADEOS II 2.0 03:04:08 10° NNE 03:09:24 73° WNW 03:10:25 56° SW
Unknown 3.9 03:11:16 56° SE 03:11:16 56° SE 03:15:15 10° ENE
Unknown 3.9 03:12:29 54° SSE 03:12:29 54° SSE 03:16:29 10° ENE
IRS-1D 4.1 03:07:43 10° N 03:12:45 43° WNW 03:13:10 42° WNW
IRS-P3 4.5 03:07:55 10° N 03:13:01 46° WNW 03:13:30 44° W
IRIDIUM 104 4.5 03:14:23 50° W 03:14:39 51° W 03:19:46 10° N
Unknown 3.8 03:15:40 57° SSE 03:15:44 57° SSE 03:19:48 10° ENE
SL-24 DEB 4.4 03:13:51 20° SSE 03:17:06 71° E 03:21:50 10° N
Cosmos 540 Rocket 4.2 03:16:41 36° WNW 03:17:06 37° NW 03:21:55 10° NNE
Unknown 3.8 03:17:16 58° SSE 03:17:23 58° SSE 03:21:29 10° ENE
deb Chang Zheng 4 4.1 03:13:18 10° N 03:17:15 44° WNW 03:17:15 44° WNW
Unknown 3.7 03:18:15 52° NE 03:18:15 52° NE 03:20:57 10° E
Unknown 3.7 03:17:48 62° SSE 03:17:53 62° SSE 03:21:57 10° ENE
Nadezhda 4 Rocket 3.9 03:16:37 42° SW 03:18:42 67° WNW 03:24:49 10° N
Unknown 3.7 03:19:03 61° S 03:19:14 62° SSE 03:23:20 10° ENE
Unknown 3.7 03:20:27 59° S 03:20:43 60° SSE 03:24:48 10° ENE
Unknown 3.7 03:22:04 59° S 03:22:22 62° SSE 03:26:29 10° ENE
Cosmos 1656 Rocket 4.0 03:21:44 27° S 03:24:47 63° ESE 03:30:23 10° NE
Unknown 3.6 03:25:15 59° S 03:25:40 64° SSE 03:29:47 10° ENE
Resurs 1-4 Rocket 3.4 03:21:49 10° N 03:25:55 23° WNW 03:26:16 23° WNW
CZ-2C R/B 2.7 03:21:57 10° NNE 03:25:57 84° WNW 03:26:29 65° SSW
SeaSat 1 4.3 03:21:55 10° NE 03:26:06 27° ESE 03:30:16 10° SSE
Cosmos 1606 4.4 03:27:50 22° NW 03:27:50 22° NW 03:30:02 10° NNW
Unknown 3.6 03:26:50 58° SSW 03:27:19 65° SSE 03:31:27 10° ENE
Cosmos 2227 Rocket 4.2 03:22:56 10° NNW 03:27:52 29° NE 03:32:47 10° ESE
Cosmos 1346 Rocket 3.7 03:24:12 10° N 03:28:13 50° ENE 03:32:12 10° SSE
CZ-2D R/B 3.3 03:24:45 10° N 03:28:44 61° WNW 03:28:59 59° W
USA 238 DEB 4.1 03:25:49 33° W 03:28:46 53° NNW 03:35:40 10° NE
USA 238 4.1 03:25:54 33° W 03:28:52 53° NNW 03:35:47 10° NE
Unknown 3.6 03:28:26 58° SSW 03:29:00 66° SSE 03:33:06 10° ENE
Unknown 3.6 03:30:49 47° E 03:30:49 47° E 03:32:59 10° ESE
Unknown 3.6 03:30:03 57° SSW 03:30:40 67° SSE 03:34:48 10° ENE
Cosmos 1536 3.9 03:26:54 10° N 03:30:46 46° ENE 03:34:36 10° SSE
Cosmos 2219 4.5 03:26:19 10° NNW 03:31:46 42° NE 03:37:08 10° ESE
H-2A R/B 4.0 03:29:11 10° NNE 03:32:38 30° E 03:36:03 10° SSE
PEGASUS R/B 4.4 03:29:38 10° NNE 03:32:09 41° N 03:32:09 41° N
CZ-4B R/B 4.0 03:36:34 12° NW 03:36:34 12° NW 03:36:54 10° NW
Unknown 3.6 03:33:15 55° SW 03:34:00 70° SSE 03:38:07 10° ENE
Cosmos 2084 Rocket 3.4 03:33:50 35° WNW 03:35:31 61° SW 03:39:49 10° SSE
Unknown 3.6 03:35:07 55° SW 03:35:55 76° SSE 03:40:05 10° ENE
Cosmos 2369 Rocket 2.4 03:34:40 37° WSW 03:36:41 57° NW 03:42:18 10° NNE
Unknown 3.6 03:36:40 53° SW 03:37:33 77° SSE 03:41:42 10° ENE
Unknown 3.6 03:36:46 52° SW 03:37:39 74° SSE 03:41:48 10° ENE
Cosmos 2297 Rocket 3.9 03:33:23 10° NNW 03:38:32 34° NE 03:43:38 10° ESE
Unknown 3.5 03:38:45 49° NW 03:39:25 62° N 03:42:55 10° E
Unknown 3.4 03:39:14 54° W 03:40:01 77° NNW 03:43:52 10° ENE
Unknown 3.6 03:39:37 49° SW 03:40:37 75° SSE 03:44:45 10° ENE
ARIANE 5 R/B 3.0 03:35:50 10° N 03:40:37 41° WNW 03:41:55 35° W
Cosmos 1553 Rocket 4.1 03:34:45 10° N 03:41:04 76° E 03:47:13 10° SSE
Cosmos 1500 3.2 03:38:38 10° N 03:42:24 80° E 03:46:10 10° SSE
Falcon 9 debris 3.4 03:42:04 45° NW 03:42:52 61° N 03:46:20 10° E
Unknown 3.6 03:42:49 47° SW 03:43:56 77° SSE 03:48:06 10° ENE
Unknown 3.6 03:44:25 45° SW 03:45:37 78° SSE 03:49:45 10° ENE
Cosmos 1862 Rocket 3.6 03:42:46 18° S 03:46:03 82° E 03:50:34 10° NNE
Cosmos 2242 Rocket 4.2 03:42:39 10° S 03:47:05 59° E 03:51:31 10° NNE
Unknown 3.4 03:46:05 45° W 03:47:11 78° NNW 03:51:05 10° ENE
Unknown 3.6 03:46:01 44° WSW 03:47:16 79° SSE 03:51:26 10° ENE
Unknown 3.5 03:47:38 42° WSW 03:48:56 81° SSE 03:53:06 10° ENE
Spot 2 4.1 03:44:45 10° NNE 03:49:25 85° ESE 03:52:37 18° SSW
ADEOS 3.7 03:45:37 10° NNE 03:50:52 74° ESE 03:56:05 10° S
Meteor 1-28 Rocket 4.0 03:55:16 32° WNW 03:55:16 32° WNW 03:58:13 10° NNW
Unknown 3.5 03:53:58 37° WSW 03:55:33 85° SSE 03:59:43 10° ENE
Unknown 3.5 03:55:36 36° WSW 03:57:14 86° SSE 04:01:24 10° ENE
Cosmos 2026 Rocket 4.0 03:51:22 11° SSW 03:57:25 74° WNW 04:03:50 10° N
Cosmos 1417 Rocket 4.5 03:51:22 10° N 03:57:44 87° W 04:04:07 10° S
Meteor 2-6 Rocket 4.3 03:54:03 18° SSW 03:58:27 65° WNW 04:04:25 10° N
Unknown 3.5 03:57:11 35° WSW 03:58:53 87° SSE 04:03:04 10° ENE
Unknown 3.5 03:58:56 31° WNW 04:00:33 65° N 04:04:16 10° ENE
Unknown 3.5 03:58:47 33° WSW 04:00:33 88° SSE 04:04:43 10° ENE
Aureole 2 Rocket 2.1 04:01:02 32° S 04:02:01 60° ESE 04:04:39 10° NNE
Unknown 3.5 04:00:24 32° WSW 04:02:14 89° SSE 04:06:25 10° ENE
Cosmos 2278 Rocket 4.5 04:02:33 10° NW 04:04:41 12° NNW 04:06:49 10° N
Timation 2 Rocket 4.1 03:59:41 10° NW 04:05:23 44° WSW 04:10:59 10° S
PSLV R/B 4.0 04:01:29 10° S 04:05:32 53° W 04:09:35 10° NNW
Unknown 3.6 04:03:37 30° WSW 04:05:35 89° NNW 04:09:45 10° ENE
Starlink (trailer) 3.6 04:05:10 29° WSW 04:07:13 88° NNW 04:11:23 10° ENE
CZ-2D R/B 4.0 04:05:55 10° NNW 04:08:07 13° NW 04:09:37 11° WNW
Unknown 3.6 04:06:48 28° WSW 04:08:54 87° NNW 04:13:04 10° ENE
Unknown 3.6 04:08:23 27° WSW 04:10:34 86° NNW 04:14:44 10° ENE
SL-4 R/B 3.7 04:12:02 14° SSW 04:12:02 14° SSW 04:13:02 10° S
Unknown 3.5 04:08:53 24° WNW 04:10:53 65° N 04:14:25 10° E
ATLAS 5 CENTAUR R/B 2.9 04:10:01 21° WNW 04:11:29 33° NNW 04:16:53 10° NE
Meteor 1-27 Rocket 3.8 04:05:54 10° SSW 04:11:46 86° WNW 04:17:34 10° NNE
NOSS 3-2 (A) 4.3 04:07:58 19° W 04:12:07 41° NNW 04:18:45 10° NE
Cosmos 1743 4.5 04:09:10 10° N 04:12:49 36° ENE 04:16:26 10° SE
Cosmos 1908 Rocket 3.4 04:08:28 10° NNW 04:12:49 75° W 04:17:09 10° S
ATLAS 3B R/B 2.8 04:08:26 21° WSW 04:12:53 58° NW 04:19:25 10° NE
Cosmos 1812 2.6 04:10:46 14° SSW 04:14:02 67° WNW 04:17:53 10° N
Cosmos 1943 Rocket 3.1 04:12:41 20° W 04:15:37 31° NW 04:20:34 10° NNE
NOSS 3-2 (C) 4.1 04:12:24 20° W 04:16:35 48° NNW 04:23:22 10° NE
Unknown 3.6 04:14:47 24° WSW 04:17:14 82° NNW 04:21:24 10° ENE
PSLV R/B 3.5 04:12:55 10° N 04:17:17 69° WNW 04:21:36 10° SSW
Unknown 3.6 04:16:24 23° W 04:18:55 81° NNW 04:23:05 10° ENE
Unknown 3.6 04:16:47 23° W 04:19:19 81° NNW 04:23:29 10° ENE
Cosmos 44 Rocket 4.0 04:15:29 10° SSW 04:20:23 55° SE 04:25:11 10° NE
Cosmos 1733 Rocket 4.0 04:16:42 10° NNW 04:20:31 28° W 04:23:43 13° SW
Unknown 3.6 04:19:34 22° W 04:22:12 80° NNW 04:26:22 10° ENE
Unknown 3.3 04:21:02 18° WNW 04:23:27 70° N 04:26:54 10° E
S3M 3.9 04:17:37 10° NNW 04:23:47 72° W 04:30:00 10° S
Unknown 3.6 04:21:16 21° W 04:23:59 78° NNW 04:28:09 10° ENE
Meteor 1-11 Rocket 4.0 04:19:01 10° NNW 04:24:18 43° W 04:29:29 10° SSW
Cosmos 1655 Rocket 4.0 04:18:08 10° S 04:24:22 87° W 04:30:43 10° N
Unknown 3.6 04:22:06 21° W 04:24:51 79° NNW 04:29:02 10° ENE
Cosmos 773 Rocket 3.9 04:20:36 10° SSW 04:25:46 75° WNW 04:30:57 10° NNE
Iridium 4 Rocket 3.8 04:23:38 17° SW 04:26:17 30° WNW 04:30:02 10° NNW
Unknown 3.7 04:24:25 19° W 04:27:17 77° NNW 04:31:27 10° ENE
FALCON 9 DEB 3.4 04:25:31 16° WNW 04:28:12 70° N 04:31:44 10° E
Cosmos 1315 Rocket 2.9 04:24:15 10° SSW 04:28:19 58° WNW 04:32:26 10° N
Unknown 3.7 04:25:57 19° W 04:28:52 77° NNW 04:33:03 10° ENE
ATLAS 5 CENTAUR R/B 4.0 04:25:02 10° NW 04:28:59 22° N 04:33:23 10° ENE
ATLAS CENTAUR R/B 2.6 04:24:45 10° NW 04:29:14 47° NE 04:33:22 10° ESE
Unknown 3.7 04:26:27 19° W 04:29:24 77° NNW 04:33:33 10° ENE
Unknown 3.7 04:29:05 18° W 04:32:08 76° NNW 04:36:18 10° ENE
IDEFIX/ARIANE 42P 2.7 04:27:20 10° N 04:32:32 59° WNW 04:37:41 10° SSW
Okean O Rocket 4.4 04:30:23 10° NE 04:33:51 22° E 04:37:18 10° SE
USA 267 3.4 04:27:22 10° ESE 04:33:54 78° NNE 04:40:28 10° WNW
Unknown 3.7 04:32:19 17° W 04:35:31 74° N 04:39:40 10° ENE
Cosmos 44 3.8 04:32:23 16° WSW 04:36:05 44° NW 04:40:37 10° NNE
Cosmos 1666 2.6 04:33:19 10° NNW 04:37:02 61° W 04:40:46 10° S
Unknown 3.7 04:33:55 16° W 04:37:11 74° N 04:41:20 10° ENE
Unknown 3.7 04:35:30 15° W 04:38:50 73° N 04:43:00 10° ENE
Cosmos 1340 3.5 04:35:55 10° NNW 04:39:15 29° W 04:42:33 10° SSW
CZ-2C R/B 2.6 04:34:45 10° NNE 04:39:41 80° ESE 04:44:43 10° SSW
Unknown 3.7 04:37:07 15° W 04:40:32 73° N 04:44:40 10° ENE
Lacrosse 5 2.5 04:37:19 10° WNW 04:41:53 35° SW 04:46:26 10° SSE
Unknown 3.7 04:40:19 14° W 04:43:51 72° N 04:48:00 10° ENE
Cosmos 1400 Rocket 4.3 04:42:22 14° W 04:44:15 19° WNW 04:47:02 10° NNW
Unknown 3.7 04:40:48 13° W 04:44:18 68° N 04:48:21 10° ENE
Unknown 3.7 04:41:58 13° W 04:45:33 71° N 04:49:41 10° ENE
Meteor 1-31 Rocket 2.9 04:42:45 10° NNE 04:46:41 84° E 04:50:35 10° SSW
Unknown 3.8 04:43:30 13° W 04:47:11 71° N 04:51:20 10° ENE
ADEOS II 3.8 04:45:19 10° NNW 04:48:15 15° NW 04:51:11 10° W
Unknown 3.8 04:45:02 13° W 04:48:46 71° N 04:52:56 10° ENE
SJ-6F 4.4 04:44:57 10° N 04:49:09 72° WNW 04:53:20 10° SSW
Unknown 3.8 04:46:56 12° W 04:50:46 70° N 04:54:55 10° ENE
Unknown 3.8 04:48:08 12° W 04:51:59 71° N 04:56:08 10° ENE
CENTAUR R/B 3.3 04:46:52 11° W 04:52:48 45° NNW 05:00:01 10° NE
Cosmos 1300 Rocket 4.5 04:49:02 10° N 04:53:20 54° ENE 04:57:37 10° SSE
Unknown 3.1 04:50:24 10° WNW 04:53:35 55° SSW 04:56:44 10° SE
Cosmos 1680 Rocket 4.2 04:49:13 10° S 04:54:21 59° ESE 04:59:30 10° NNE
Cosmos 1818 4.4 04:49:53 10° NW 04:55:16 53° NE 05:00:36 10° ESE
Unknown 3.8 04:51:19 11° W 04:55:20 70° N 04:59:28 10° ENE
Cosmos 923 Rocket 4.3 04:50:05 10° SSW 04:55:25 76° ESE 05:00:46 10° NNE
Cosmos 1782 Rocket 3.8 04:51:33 10° NNW 04:55:46 48° W 05:00:00 10° SSW
Cosmos 2082 4.2 04:50:44 10° NNW 04:56:25 65° ENE 05:02:02 10° SE
Unknown 3.8 04:52:56 10° W 04:57:00 69° N 05:01:08 10° ENE
Unknown 3.8 04:53:17 10° W 04:57:20 68° N 05:01:27 10° ENE
Okean 1 3.5 04:53:26 10° S 04:57:23 76° E 05:01:23 10° NNE
Unknown 3.8 04:54:43 10° W 04:58:52 68° N 05:03:01 10° ENE
Unknown 3.8 04:56:11 10° W 05:00:19 69° N 05:04:29 10° ENE
Cosmos 1975 3.0 04:56:26 10° N 05:00:31 84° E 05:04:36 10° SSE
SKYMED 2 3.7 04:56:43 10° SSE 05:01:04 86° ENE 05:05:26 10° NNW
Unknown 3.8 04:57:52 10° W 05:02:00 68° N 05:06:09 10° ENE
Cosmos 2344 4.5 04:54:52 10° W 05:02:12 44° NNW 05:11:08 10° NE
Cosmos 883 Rocket 4.5 04:57:39 10° NNW 05:03:42 61° W 05:09:41 10° S
SeaSat 1 2.6 04:59:03 10° NNE 05:03:55 59° NW 05:08:45 10° SW
Cosmos 1346 Rocket 4.3 05:01:25 10° NW 05:04:13 18° W 05:07:01 10° SW
Cosmos 2292 Rocket 3.6 04:59:30 10° S 05:04:16 78° E 05:07:54 10° NNE
Unknown 3.8 05:02:07 10° W 05:04:36 27° SSW 05:07:05 10° SSE
Cosmos 2266 Rocket 3.9 04:58:47 10° SSW 05:04:50 68° WNW 05:10:52 10° N
Cosmos 1538 Rocket 4.3 05:00:10 10° SW 05:05:09 48° WNW 05:10:11 10° NNE
Unknown 3.8 05:01:11 10° W 05:05:19 68° N 05:09:28 10° ENE
Cosmos 1536 4.2 05:04:05 10° NW 05:06:52 18° W 05:09:38 10° SW
Cosmos 2151 Rocket 4.0 05:02:26 10° N 05:06:53 72° ENE 05:11:19 10° SSE
Unknown 3.8 05:02:50 10° W 05:06:58 68° N 05:11:07 10° E
Cosmos 2056 Rocket 3.7 05:02:16 10° NNW 05:07:37 82° ENE 05:12:49 10° SSE
H-2A R/B 3.3 05:04:48 10° N 05:08:06 28° WNW 05:11:22 10° WSW
Cosmos 1441 Rocket 4.3 05:04:49 10° N 05:08:28 48° ENE 05:12:06 10° SSE
Unknown 3.8 05:04:31 10° W 05:08:39 67° N 05:12:47 10° E
Helios 1A Rocket 3.9 05:05:02 10° NNE 05:09:03 53° ESE 05:13:03 10° S
Meteor 1-18 Rocket 4.4 05:03:43 10° S 05:09:20 84° E 05:15:06 10° NNE
Unknown 3.8 05:06:12 10° W 05:10:20 67° N 05:14:29 10° E
Cosmos 2227 Rocket 2.2 05:06:47 10° NNW 05:12:27 70° WSW 05:18:05 10° SSE
